TimeEDT,TemperatureF,Dew PointF,Humidity,Sea Level PressureIn,VisibilityMPH,Wind Direction,Wind SpeedMPH,Gust SpeedMPH,PrecipitationIn,Events,Conditions,WindDirDegrees,DateUTC
12:15 AM,60.8,48.2,63,29.91,10.0,WNW,4.6,-,N/A,,Clear,290,2012-10-16 04:15:00
12:35 AM,60.8,48.2,63,29.91,10.0,Calm,Calm,-,N/A,,Clear,0,2012-10-16 04:35:00
1:15 AM,60.8,48.2,63,29.91,10.0,WNW,3.5,-,N/A,,Clear,300,2012-10-16 05:15:00
1:35 AM,60.8,48.2,63,29.92,10.0,NW,4.6,-,N/A,,Clear,310,2012-10-16 05:35:00
1:55 AM,60.8,48.2,63,29.92,10.0,WNW,4.6,-,N/A,,Clear,300,2012-10-16 05:55:00
2:35 AM,60.8,46.4,59,29.93,10.0,NW,3.5,-,N/A,,Clear,320,2012-10-16 06:35:00
2:55 AM,59.0,46.4,63,29.93,10.0,Calm,Calm,-,N/A,,Clear,0,2012-10-16 06:55:00
3:15 AM,59.0,48.2,67,29.94,10.0,Calm,Calm,-,N/A,,Clear,0,2012-10-16 07:15:00
3:35 AM,59.0,46.4,63,29.93,10.0,NNW,3.5,-,N/A,,Clear,340,2012-10-16 07:35:00
3:55 AM,55.4,48.2,77,29.94,10.0,Calm,Calm,-,N/A,,Clear,0,2012-10-16 07:55:00
4:15 AM,53.6,50.0,88,29.94,10.0,Calm,Calm,-,N/A,,Clear,0,2012-10-16 08:15:00
4:35 AM,53.6,50.0,88,29.95,10.0,Calm,Calm,-,N/A,,Clear,0,2012-10-16 08:35:00
4:55 AM,51.8,50.0,94,29.95,10.0,Calm,Calm,-,N/A,,Clear,0,2012-10-16 08:55:00
5:15 AM,50.0,50.0,100,29.95,10.0,Calm,Calm,-,N/A,,Clear,0,2012-10-16 09:15:00
5:55 AM,50.0,50.0,100,29.96,10.0,Calm,Calm,-,N/A,,Clear,0,2012-10-16 09:55:00
6:15 AM,50.0,50.0,100,29.97,10.0,Calm,Calm,-,N/A,,Clear,0,2012-10-16 10:15:00
6:35 AM,50.0,50.0,100,29.97,10.0,Calm,Calm,-,N/A,,Clear,0,2012-10-16 10:35:00
7:15 AM,48.2,48.2,100,29.97,10.0,Calm,Calm,-,N/A,,Clear,0,2012-10-16 11:15:00
7:35 AM,48.2,48.2,100,29.98,10.0,Calm,Calm,-,N/A,,Clear,0,2012-10-16 11:35:00
8:15 AM,50.0,50.0,100,29.98,10.0,Calm,Calm,-,N/A,,Clear,0,2012-10-16 12:15:00
8:35 AM,51.8,51.8,100,29.99,10.0,Calm,Calm,-,N/A,,Clear,0,2012-10-16 12:35:00
8:55 AM,53.6,53.6,100,29.99,10.0,Calm,Calm,-,N/A,,Clear,0,2012-10-16 12:55:00
9:35 AM,60.8,51.8,72,30.00,10.0,Calm,Calm,-,N/A,,Clear,0,2012-10-16 13:35:00
9:55 AM,60.8,50.0,68,30.00,10.0,NE,4.6,-,N/A,,Clear,40,2012-10-16 13:55:00
10:15 AM,62.6,50.0,63,30.00,10.0,Calm,Calm,-,N/A,,Clear,0,2012-10-16 14:15:00
10:55 AM,66.2,50.0,56,29.99,10.0,Calm,Calm,-,N/A,,Clear,0,2012-10-16 14:55:00
11:15 AM,68.0,48.2,49,29.99,10.0,Calm,Calm,-,N/A,,Clear,0,2012-10-16 15:15:00
12:55 PM,71.6,42.8,35,29.98,10.0,Calm,Calm,-,N/A,,Clear,0,2012-10-16 16:55:00
1:15 PM,71.6,42.8,35,29.96,10.0,Calm,Calm,-,N/A,,Clear,0,2012-10-16 17:15:00
1:35 PM,73.4,42.8,33,29.95,10.0,NE,4.6,-,N/A,,Clear,40,2012-10-16 17:35:00
1:55 PM,73.4,41.0,31,29.94,10.0,Calm,Calm,-,N/A,,Clear,0,2012-10-16 17:55:00
2:15 PM,73.4,42.8,33,29.93,10.0,ENE,3.5,-,N/A,,Clear,60,2012-10-16 18:15:00
2:35 PM,73.4,42.8,33,29.92,10.0,NW,3.5,-,N/A,,Clear,310,2012-10-16 18:35:00
2:55 PM,75.2,42.8,31,29.91,10.0,Calm,Calm,-,N/A,,Clear,0,2012-10-16 18:55:00
3:15 PM,73.4,41.0,31,29.91,10.0,ESE,3.5,-,N/A,,Clear,120,2012-10-16 19:15:00
3:35 PM,73.4,41.0,31,29.91,10.0,Calm,Calm,-,N/A,,Clear,0,2012-10-16 19:35:00
3:55 PM,73.4,41.0,31,29.90,10.0,WNW,4.6,-,N/A,,Clear,290,2012-10-16 19:55:00
4:15 PM,75.2,42.8,31,29.90,10.0,Calm,Calm,-,N/A,,Clear,0,2012-10-16 20:15:00
4:35 PM,75.2,41.0,29,29.89,10.0,Calm,Calm,-,N/A,,Clear,0,2012-10-16 20:35:00
4:55 PM,73.4,42.8,33,29.89,10.0,Calm,Calm,-,N/A,,Clear,0,2012-10-16 20:55:00
5:35 PM,69.8,46.4,43,29.89,10.0,Calm,Calm,-,N/A,,Clear,0,2012-10-16 21:35:00
5:55 PM,69.8,46.4,43,29.89,10.0,Calm,Calm,-,N/A,,Clear,0,2012-10-16 21:55:00
6:15 PM,68.0,50.0,52,29.89,10.0,Calm,Calm,-,N/A,,Clear,0,2012-10-16 22:15:00
6:35 PM,66.2,50.0,56,29.89,10.0,Calm,Calm,-,N/A,,Clear,0,2012-10-16 22:35:00
6:55 PM,64.4,51.8,64,29.89,10.0,Calm,Calm,-,N/A,,Clear,0,2012-10-16 22:55:00
7:15 PM,62.6,51.8,68,29.89,10.0,Calm,Calm,-,N/A,,Clear,0,2012-10-16 23:15:00
7:55 PM,60.8,51.8,72,29.89,10.0,Calm,Calm,-,N/A,,Clear,0,2012-10-16 23:55:00
8:15 PM,60.8,53.6,77,29.90,10.0,Calm,Calm,-,N/A,,Clear,0,2012-10-17 00:15:00
8:35 PM,59.0,51.8,77,29.90,10.0,Calm,Calm,-,N/A,,Clear,0,2012-10-17 00:35:00
8:55 PM,59.0,53.6,82,29.90,10.0,Calm,Calm,-,N/A,,Clear,0,2012-10-17 00:55:00
9:35 PM,57.2,51.8,82,29.90,10.0,Calm,Calm,-,N/A,,Clear,0,2012-10-17 01:35:00
9:55 PM,57.2,53.6,88,29.91,10.0,Calm,Calm,-,N/A,,Clear,0,2012-10-17 01:55:00
10:15 PM,57.2,55.4,94,29.91,10.0,Calm,Calm,-,N/A,,Clear,0,2012-10-17 02:15:00
10:35 PM,57.2,53.6,88,29.91,10.0,Calm,Calm,-,N/A,,Clear,0,2012-10-17 02:35:00
10:55 PM,55.4,55.4,100,29.92,10.0,Calm,Calm,-,N/A,,Clear,0,2012-10-17 02:55:00
11:35 PM,55.4,53.6,94,29.92,10.0,Calm,Calm,-,N/A,,Clear,0,2012-10-17 03:35:00
11:55 PM,55.4,53.6,94,29.92,10.0,Calm,Calm,-,N/A,,Clear,0,2012-10-17 03:55:00